Hourly Data Report for February 05, 2018

MIRAMICHI RCS
NEW BRUNSWICK

47°00'34.000" N
65°27'54.000" W
33.00 m
8100989
71744
ACQ

Download Data

Hourly Data (February 2018)
Hourly Data Report for February 5, 2018
TIME
LST
Temp Definition
°C
Dew Point Definition
°C
Rel Hum Definition
%
Precip. Amount Definition
mm

Wind Dir Definition
10's deg

Wind Spd Definition
km/h
Visibility Definition
km
Stn Press Definition
kPa
Hmdx Definition


Wind Chill Definition


Weather Definition


00:00 2.5 1.6 94 0.3 18 15   100.99     LegendNANA
01:00 3.1 2.1 94 0.6 17 15   100.78     LegendNANA
02:00 3.0 2.3 95 0.3 16 12   100.56     LegendNANA
03:00 3.5 2.8 95 0.6 16 15   100.38     LegendNANA
04:00 4.0 3.3 96 1.1 15 14   100.12     LegendNANA
05:00 3.7 3.1 96 1.3 14 17   99.92     LegendNANA
06:00 3.8 3.3 97 1.8 14 10   99.70     LegendNANA
07:00 3.7 3.3 97 2.3 13 12   99.44     LegendNANA
08:00 3.6 3.3 98 1.6 5 9   99.20     LegendNANA
09:00 3.2 2.9 98 0.7 36 8   99.01     LegendNANA
10:00 3.5 3.2 98 0.5 34 7   98.85     LegendNANA
11:00 4.0 3.5 97 0.2 29 5   98.87     LegendNANA
12:00 4.8 3.9 95 0.3 29 13   98.88     LegendNANA
13:00 5.1 3.2 87 0.0 29 14   98.88     LegendNANA
14:00 4.4 2.4 87 0.0 30 12   98.97     LegendNANA
15:00 3.4 0.2 80 0.0 30 17   99.12     LegendNANA
16:00 2.4 -1.9 73 0.0 30 19   99.31     LegendNANA
17:00 1.5 -3.3 70 0.0 29 22   99.57     LegendNANA
18:00 -1.2 -7.7 61 0.0 30 28   99.86   -8 LegendNANA
19:00 -3.0 -10.1 58 0.0 29 34   100.12   -11 LegendNANA
20:00 -4.9 -12.9 53 0.0 29 25   100.40   -12 LegendNANA
21:00 -6.0 -15.0 49 0.0 27 23   100.61   -13 LegendNANA
22:00 -7.2 -17.4 44 0.0 28 17   100.81   -14 LegendNANA
23:00 -8.3 -16.7 51 0.0 28 19   100.96   -16 LegendNANA

Notes on Data Quality.

Legend

  • E = Estimated
  • M = Missing
  • NA = Not Available*
  • [empty] = Indicates an unobserved value
Date modified: